| time (UTC) | temp F | wind direction | speed knots | gust knots | rain 1hr in | rain 24hr in | rain mn in | humidity % | barometer mb |
| 20260504151017 | 48 | 290 | 12.2 | 18.2 | 0.00 | 0.00 | 0.00 | 56 | 1015.6 |
| 20260504150517 | 48 | 289 | 13.9 | 18.2 | 0.00 | 0.00 | 0.00 | 56 | 1015.5 |
| 20260504141022 | 46 | 263 | 8.7 | 13.9 | 0.00 | 0.00 | 0.00 | 66 | 1015.8 |
| 20260504140520 | 45 | 248 | 9.6 | 14.8 | 0.00 | 0.00 | 0.00 | 67 | 1015.7 |
| 20260504130517 | 44 | 248 | 7.8 | 11.3 | 0.00 | 0.00 | 0.00 | 70 | 1015.6 |
| 20260504120107 | 43 | 244 | 7.0 | 8.7 | 0.00 | 0.00 | 0.00 | 69 | 1015.8 |
| 20260504110515 | 44 | 229 | 6.1 | 7.8 | 0.00 | 0.00 | 0.00 | 67 | 1015.8 |
| 20260504100510 | 44 | 283 | 4.3 | 7.8 | 0.00 | 0.00 | 0.00 | 65 | 1016.1 |
| 20260504081538 | 47 | 37 | 16.5 | 21.7 | 0.00 | 0.00 | 0.00 | 60 | 1015.4 |
| 20260504081013 | 47 | 44 | 14.8 | 23.5 | 0.00 | 0.00 | 0.00 | 59 | 1015.2 |
| 20260504080515 | 47 | 32 | 13.9 | 23.5 | 0.00 | 0.00 | 0.00 | 59 | 1015.2 |
| 20260504050515 | 54 | 28 | 20.9 | 32.2 | 0.00 | 0.00 | 0.00 | 40 | 1010.5 |
| 20260504045516 | 54 | 26 | 26.1 | 35.6 | 0.00 | 0.00 | 0.00 | 39 | 1010.6 |
| 20260504045013 | 55 | 17 | 23.5 | 29.5 | 0.00 | 0.00 | 0.00 | 40 | 1010.6 |
| 20260504044542 | 56 | 29 | 20.9 | 27.8 | 0.00 | 0.00 | 0.00 | 41 | 1010.0 |
| 20260504044013 | 57 | 30 | 20.0 | 26.1 | 0.00 | 0.00 | 0.00 | 40 | 1009.9 |
| 20260504043511 | 58 | 21 | 19.1 | 25.2 | 0.00 | 0.00 | 0.00 | 39 | 1010.0 |
| 20260504043041 | 58 | 28 | 19.1 | 24.3 | 0.00 | 0.00 | 0.00 | 39 | 1010.0 |
| 20260504042515 | 58 | 34 | 15.6 | 20.9 | 0.00 | 0.00 | 0.00 | 39 | 1009.7 |
| 20260504042013 | 58 | 32 | 14.8 | 19.1 | 0.00 | 0.00 | 0.00 | 38 | 1009.7 |
| 20260504041536 | 58 | 30 | 12.2 | 18.2 | 0.00 | 0.00 | 0.00 | 39 | 1009.6 |
| 20260504041014 | 58 | 34 | 10.4 | 13.9 | 0.00 | 0.00 | 0.00 | 39 | 1009.4 |
| 20260504040513 | 57 | 13 | 9.6 | 13.9 | 0.00 | 0.00 | 0.00 | 38 | 1009.5 |
| 20260504040038 | 57 | 20 | 8.7 | 13.9 | 0.00 | 0.00 | 0.00 | 37 | 1009.5 |
| 20260504035513 | 57 | 12 | 9.6 | 13.9 | 0.00 | 0.00 | 0.00 | 37 | 1009.1 |
| 20260504035015 | 58 | 355 | 8.7 | 13.9 | 0.00 | 0.00 | 0.00 | 37 | 1009.1 |
| 20260504034540 | 58 | 9 | 9.6 | 19.1 | 0.00 | 0.00 | 0.00 | 37 | 1009.1 |
| 20260504034012 | 59 | 23 | 13.9 | 19.1 | 0.00 | 0.00 | 0.00 | 37 | 1009.0 |
| 20260504033513 | 59 | 19 | 13.9 | 21.7 | 0.00 | 0.00 | 0.00 | 37 | 1008.9 |
| 20260504033035 | 59 | 32 | 13.0 | 21.7 | 0.00 | 0.00 | 0.00 | 38 | 1008.7 |
| 20260504032514 | 59 | 33 | 13.9 | 19.1 | 0.00 | 0.00 | 0.00 | 38 | 1008.5 |
| 20260504032015 | 59 | 14 | 13.0 | 19.1 | 0.00 | 0.00 | 0.00 | 39 | 1008.4 |
| 20260504031537 | 59 | 38 | 13.9 | 20.9 | 0.00 | 0.00 | 0.00 | 38 | 1008.4 |
| 20260504031015 | 60 | 28 | 15.6 | 22.6 | 0.00 | 0.00 | 0.00 | 38 | 1008.3 |
| 20260504030515 | 60 | 26 | 18.2 | 22.6 | 0.00 | 0.00 | 0.00 | 37 | 1008.1 |
| 20260504030043 | 60 | 32 | 16.5 | 20.9 | 0.00 | 0.00 | 0.00 | 37 | 1008.0 |
| 20260504025514 | 61 | 29 | 15.6 | 20.9 | 0.00 | 0.00 | 0.00 | 37 | 1007.9 |
| 20260504025013 | 61 | 34 | 16.5 | 20.9 | 0.00 | 0.00 | 0.00 | 37 | 1007.9 |
| 20260504024539 | 61 | 33 | 13.0 | 18.2 | 0.00 | 0.00 | 0.00 | 36 | 1007.9 |
| 20260504024013 | 62 | 28 | 13.0 | 18.2 | 0.00 | 0.00 | 0.00 | 34 | 1007.8 |
| 20260504023514 | 62 | 33 | 9.6 | 13.9 | 0.00 | 0.00 | 0.00 | 32 | 1007.8 |
| 20260504023039 | 63 | 29 | 10.4 | 13.9 | 0.00 | 0.00 | 0.00 | 30 | 1007.6 |
| 20260504022512 | 63 | 33 | 7.8 | 13.0 | 0.00 | 0.00 | 0.00 | 25 | 1007.8 |
| 20260504022014 | 64 | 5 | 4.3 | 7.0 | 0.00 | 0.00 | 0.00 | 24 | 1007.6 |
| 20260504021535 | 65 | 10 | 3.5 | 7.0 | 0.00 | 0.00 | 0.00 | 24 | 1007.7 |
| 20260504021015 | 66 | 5 | 3.5 | 8.7 | 0.00 | 0.00 | 0.00 | 23 | 1007.6 |
| 20260504020514 | 66 | 13 | 6.1 | 9.6 | 0.00 | 0.00 | 0.00 | 23 | 1007.4 |
| 20260504020037 | 67 | 5 | 6.1 | 12.2 | 0.00 | 0.00 | 0.00 | 22 | 1007.5 |
| 20260504015513 | 67 | 9 | 8.7 | 13.0 | 0.00 | 0.00 | 0.00 | 22 | 1007.8 |
| 20260504015011 | 68 | 360 | 9.6 | 17.4 | 0.00 | 0.00 | 0.00 | 21 | 1007.8 |
| 20260504014553 | 68 | 360 | 11.3 | 17.4 | 0.00 | 0.00 | 0.00 | 21 | 1007.7 |
| 20260504014012 | 68 | 345 | 9.6 | 16.5 | 0.00 | 0.00 | 0.00 | 21 | 1007.8 |
| 20260504013519 | 69 | 5 | 13.0 | 16.5 | 0.00 | 0.00 | 0.00 | 21 | 1007.7 |
| 20260504013038 | 69 | 352 | 11.3 | 16.5 | 0.00 | 0.00 | 0.00 | 21 | 1007.7 |
| 20260504012515 | 70 | 352 | 13.0 | 16.5 | 0.00 | 0.00 | 0.00 | 21 | 1007.8 |
| 20260504012020 | 70 | 351 | 13.0 | 17.4 | 0.00 | 0.00 | 0.00 | 20 | 1007.8 |
| 20260504011542 | 71 | 352 | 13.9 | 17.4 | 0.00 | 0.00 | 0.00 | 21 | 1007.6 |
| 20260504011014 | 71 | 342 | 11.3 | 18.2 | 0.00 | 0.00 | 0.00 | 21 | 1007.7 |
| 20260504010513 | 71 | 340 | 13.0 | 18.2 | 0.00 | 0.00 | 0.00 | 21 | 1007.8 |
| 20260504010038 | 71 | 326 | 13.0 | 19.1 | 0.00 | 0.00 | 0.00 | 21 | 1007.8 |
| 20260504005511 | 71 | 336 | 13.0 | 19.1 | 0.00 | 0.00 | 0.00 | 21 | 1008.0 |
| 20260504005014 | 72 | 348 | 13.9 | 19.1 | 0.00 | 0.00 | 0.00 | 20 | 1008.0 |
| 20260504004537 | 72 | 338 | 12.2 | 18.2 | 0.00 | 0.00 | 0.00 | 21 | 1008.0 |
| 20260504004013 | 72 | 346 | 13.0 | 18.2 | 0.00 | 0.00 | 0.00 | 20 | 1008.2 |
| 20260504003512 | 72 | 315 | 11.3 | 21.7 | 0.00 | 0.00 | 0.00 | 21 | 1008.3 |
| 20260504003050 | 72 | 346 | 13.9 | 21.7 | 0.00 | 0.00 | 0.00 | 20 | 1008.3 |
| 20260504002515 | 72 | 338 | 13.0 | 17.4 | 0.00 | 0.00 | 0.00 | 20 | 1008.4 |
| 20260504002015 | 72 | 338 | 13.0 | 18.2 | 0.00 | 0.00 | 0.00 | 20 | 1008.4 |
| 20260504001542 | 72 | 323 | 8.7 | 20.0 | 0.00 | 0.00 | 0.00 | 20 | 1008.3 |
| 20260504001013 | 72 | 5 | 13.9 | 20.0 | 0.00 | 0.00 | 0.00 | 20 | 1008.6 |
| 20260504000512 | 72 | 338 | 11.3 | 15.6 | 0.00 | 0.00 | 0.00 | 20 | 1008.3 |
| 20260504000049 | 72 | 313 | 11.3 | 23.5 | 0.00 | 0.00 | 0.00 | 20 | 1008.6 |
| 20260503235513 | 73 | 321 | 15.6 | 23.5 | 0.00 | 0.00 | 0.00 | 20 | 1008.3 |
| 20260503235013 | 73 | 331 | 13.9 | 19.1 | 0.00 | 0.00 | 0.00 | 19 | 1008.4 |
| 20260503234546 | 72 | 327 | 13.0 | 20.9 | 0.00 | 0.00 | 0.00 | 20 | 1008.3 |
| 20260503234016 | 72 | 334 | 4.3 | 23.5 | 0.00 | 0.00 | 0.00 | 20 | 1008.4 |
| 20260503233513 | 73 | 338 | 19.1 | 23.5 | 0.00 | 0.00 | 0.00 | 20 | 1008.3 |
| 20260503233043 | 73 | 319 | 10.4 | 19.1 | 0.00 | 0.00 | 0.00 | 20 | 1008.4 |
| 20260503232515 | 73 | 329 | 13.9 | 21.7 | 0.00 | 0.00 | 0.00 | 19 | 1008.3 |
| 20260503232015 | 73 | 311 | 16.5 | 21.7 | 0.00 | 0.00 | 0.00 | 19 | 1008.5 |
| 20260503231545 | 73 | 337 | 11.3 | 20.0 | 0.00 | 0.00 | 0.00 | 19 | 1008.6 |
| 20260503231018 | 73 | 306 | 13.9 | 23.5 | 0.00 | 0.00 | 0.00 | 19 | 1008.7 |
| 20260503230516 | 73 | 313 | 17.4 | 23.5 | 0.00 | 0.00 | 0.00 | 19 | 1008.9 |
| 20260503230044 | 73 | 338 | 9.6 | 20.9 | 0.00 | 0.00 | 0.00 | 20 | 1008.1 |
| 20260503225520 | 72 | 334 | 12.2 | 20.0 | 0.00 | 0.00 | 0.00 | 19 | 1008.7 |
| 20260503225015 | 73 | 311 | 13.9 | 20.0 | 0.00 | 0.00 | 0.00 | 19 | 1008.8 |
| 20260503224538 | 73 | 283 | 13.0 | 24.3 | 0.00 | 0.00 | 0.00 | 19 | 1008.7 |
| 20260503224015 | 73 | 322 | 15.6 | 24.3 | 0.00 | 0.00 | 0.00 | 19 | 1008.7 |
| 20260503223521 | 73 | 306 | 10.4 | 19.1 | 0.00 | 0.00 | 0.00 | 19 | 1009.0 |
| 20260503223041 | 73 | 277 | 10.4 | 19.1 | 0.00 | 0.00 | 0.00 | 19 | 1008.9 |
| 20260503222515 | 73 | 332 | 12.2 | 20.0 | 0.00 | 0.00 | 0.00 | 20 | 1008.9 |
| 20260503222017 | 73 | 325 | 14.8 | 20.0 | 0.00 | 0.00 | 0.00 | 20 | 1009.1 |
| 20260503221548 | 73 | 298 | 13.9 | 18.2 | 0.00 | 0.00 | 0.00 | 20 | 1009.2 |
| 20260503221018 | 72 | 265 | 8.7 | 21.7 | 0.00 | 0.00 | 0.00 | 21 | 1009.2 |
| 20260503220519 | 72 | 270 | 14.8 | 21.7 | 0.00 | 0.00 | 0.00 | 20 | 1009.3 |
| 20260503220047 | 72 | 304 | 11.3 | 21.7 | 0.00 | 0.00 | 0.00 | 20 | 1009.4 |
| 20260503215519 | 72 | 321 | 15.6 | 21.7 | 0.00 | 0.00 | 0.00 | 20 | 1009.4 |
| 20260503215015 | 72 | 323 | 13.9 | 20.9 | 0.00 | 0.00 | 0.00 | 20 | 1009.3 |
| 20260503214535 | 72 | 311 | 13.0 | 21.7 | 0.00 | 0.00 | 0.00 | 20 | 1009.3 |
| 20260503214013 | 72 | 286 | 11.3 | 20.9 | 0.00 | 0.00 | 0.00 | 21 | 1009.4 |
| 20260503213515 | 72 | 290 | 13.9 | 35.6 | 0.00 | 0.00 | 0.00 | 21 | 1009.6 |
| 20260503213050 | 72 | 278 | 13.9 | 35.6 | 0.00 | 0.00 | 0.00 | 20 | 1009.4 |
| 20260503212513 | 72 | 338 | 14.8 | 20.0 | 0.00 | 0.00 | 0.00 | 20 | 1009.7 |
| 20260503212015 | 72 | 327 | 12.2 | 19.1 | 0.00 | 0.00 | 0.00 | 20 | 1009.9 |
| 20260503211544 | 72 | 264 | 9.6 | 20.0 | 0.00 | 0.00 | 0.00 | 21 | 1010.1 |
| 20260503211015 | 72 | 304 | 13.0 | 20.0 | 0.00 | 0.00 | 0.00 | 21 | 1010.0 |
| 20260503210515 | 71 | 260 | 11.3 | 26.9 | 0.00 | 0.00 | 0.00 | 21 | 1010.1 |
| 20260503210042 | 71 | 321 | 13.0 | 26.9 | 0.00 | 0.00 | 0.00 | 21 | 1010.1 |
| 20260503205515 | 71 | 319 | 17.4 | 22.6 | 0.00 | 0.00 | 0.00 | 21 | 1010.4 |
| 20260503205016 | 72 | 275 | 10.4 | 22.6 | 0.00 | 0.00 | 0.00 | 22 | 1010.3 |
| 20260503204547 | 70 | 261 | 9.6 | 19.1 | 0.00 | 0.00 | 0.00 | 22 | 1010.4 |
| 20260503204014 | 70 | 262 | 9.6 | 20.9 | 0.00 | 0.00 | 0.00 | 20 | 1010.4 |
| 20260503203515 | 71 | 293 | 13.9 | 20.9 | 0.00 | 0.00 | 0.00 | 21 | 1010.4 |
| 20260503203037 | 71 | 301 | 13.0 | 20.0 | 0.00 | 0.00 | 0.00 | 21 | 1010.7 |
| 20260503202515 | 70 | 306 | 13.0 | 20.0 | 0.00 | 0.00 | 0.00 | 22 | 1010.5 |
| 20260503202013 | 70 | 324 | 13.0 | 20.0 | 0.00 | 0.00 | 0.00 | 21 | 1010.6 |
| 20260503201544 | 71 | 297 | 12.2 | 20.0 | 0.00 | 0.00 | 0.00 | 21 | 1011.0 |
| 20260503201015 | 71 | 258 | 11.3 | 19.1 | 0.00 | 0.00 | 0.00 | 22 | 1010.9 |
| 20260503200517 | 71 | 329 | 13.0 | 19.1 | 0.00 | 0.00 | 0.00 | 21 | 1011.0 |
| 20260503200037 | 69 | 319 | 10.4 | 21.7 | 0.00 | 0.00 | 0.00 | 23 | 1011.2 |
| 20260503195514 | 69 | 269 | 16.5 | 22.6 | 0.00 | 0.00 | 0.00 | 22 | 1011.0 |
| 20260503195016 | 69 | 259 | 10.4 | 22.6 | 0.00 | 0.00 | 0.00 | 22 | 1011.0 |
| 20260503194545 | 69 | 265 | 11.3 | 20.9 | 0.00 | 0.00 | 0.00 | 23 | 1011.2 |
| 20260503194015 | 69 | 252 | 9.6 | 20.9 | 0.00 | 0.00 | 0.00 | 24 | 1011.3 |
| 20260503193518 | 70 | 273 | 13.9 | 20.9 | 0.00 | 0.00 | 0.00 | 23 | 1011.2 |
| 20260503193049 | 69 | 313 | 11.3 | 20.9 | 0.00 | 0.00 | 0.00 | 22 | 1011.5 |
| 20260503192514 | 70 | 315 | 14.8 | 20.9 | 0.00 | 0.00 | 0.00 | 22 | 1011.1 |
| 20260503192015 | 69 | 309 | 13.9 | 20.0 | 0.00 | 0.00 | 0.00 | 22 | 1011.4 |
| 20260503191538 | 69 | 266 | 12.2 | 20.0 | 0.00 | 0.00 | 0.00 | 23 | 1011.5 |
| 20260503191016 | 69 | 307 | 15.6 | 20.0 | 0.00 | 0.00 | 0.00 | 21 | 1011.6 |
| 20260503190517 | 69 | 292 | 15.6 | 20.0 | 0.00 | 0.00 | 0.00 | 21 | 1011.5 |
| 20260503190051 | 69 | 278 | 11.3 | 20.0 | 0.00 | 0.00 | 0.00 | 23 | 1011.7 |
| 20260503185514 | 68 | 352 | 3.5 | 15.6 | 0.00 | 0.00 | 0.00 | 23 | 1011.7 |
| 20260503185014 | 69 | 274 | 9.6 | 15.6 | 0.00 | 0.00 | 0.00 | 23 | 1012.0 |
| 20260503184555 | 68 | 242 | 3.5 | 16.5 | 0.00 | 0.00 | 0.00 | 23 | 1012.0 |
| 20260503184013 | 68 | 322 | 7.8 | 18.2 | 0.00 | 0.00 | 0.00 | 22 | 1012.0 |
| 20260503183515 | 69 | 341 | 10.4 | 20.0 | 0.00 | 0.00 | 0.00 | 22 | 1011.8 |
| 20260503183056 | 68 | 267 | 13.0 | 18.2 | 0.00 | 0.00 | 0.00 | 23 | 1012.0 |
| 20260503182516 | 68 | 280 | 7.8 | 20.0 | 0.00 | 0.00 | 0.00 | 23 | 1012.0 |
| 20260503182016 | 68 | 268 | 10.4 | 20.0 | 0.00 | 0.00 | 0.00 | 21 | 1012.1 |
| 20260503181558 | 68 | 269 | 10.4 | 18.2 | 0.00 | 0.00 | 0.00 | 23 | 1012.2 |
| 20260503181014 | 68 | 345 | 13.9 | 18.2 | 0.00 | 0.00 | 0.00 | 23 | 1012.1 |
| 20260503180514 | 68 | 283 | 6.1 | 20.9 | 0.00 | 0.00 | 0.00 | 24 | 1012.3 |
| 20260503180050 | 68 | 311 | 10.4 | 20.9 | 0.00 | 0.00 | 0.00 | 23 | 1012.4 |
| 20260503175512 | 68 | 293 | 13.9 | 21.7 | 0.00 | 0.00 | 0.00 | 24 | 1012.1 |
| 20260503175018 | 68 | 352 | 14.8 | 21.7 | 0.00 | 0.00 | 0.00 | 23 | 1012.4 |
| 20260503174546 | 68 | 329 | 7.8 | 14.8 | 0.00 | 0.00 | 0.00 | 25 | 1012.3 |
| 20260503174015 | 68 | 277 | 5.2 | 20.0 | 0.00 | 0.00 | 0.00 | 24 | 1012.4 |
| 20260503173519 | 67 | 331 | 13.0 | 20.0 | 0.00 | 0.00 | 0.00 | 25 | 1012.4 |
| 20260503173056 | 67 | 316 | 10.4 | 18.2 | 0.00 | 0.00 | 0.00 | 25 | 1012.4 |
| 20260503172516 | 67 | 244 | 9.6 | 15.6 | 0.00 | 0.00 | 0.00 | 25 | 1012.5 |
| 20260503172019 | 68 | 244 | 11.3 | 14.8 | 0.00 | 0.00 | 0.00 | 25 | 1012.5 |
| 20260503171547 | 67 | 309 | 3.5 | 7.8 | 0.00 | 0.00 | 0.00 | 28 | 1012.7 |
| 20260503171016 | 66 | 297 | 3.5 | 15.6 | 0.00 | 0.00 | 0.00 | 27 | 1012.8 |
| 20260503170517 | 66 | 331 | 11.3 | 15.6 | 0.00 | 0.00 | 0.00 | 27 | 1012.8 |